sat.trackr.live / text

‹ back to catalog

STARLINK-4150

NORAD 53134 · 2022-083C

PAYLOAD ACTIVE UNKNOWN

§ Identity

Operator
Country
US
Launch date
2022-07-17
Launch site
AFETR
Launch vehicle
Mass (kg)
RCS (m²)

Purposes: comms

External: N2YO · Heavens-Above · Gunter

§ Orbital elements

Epoch: 2026-09-19T21:39:02.297952Z

Period
93.85 min
Inclination
53.1617°
Eccentricity
0.0001129
Mean motion
15.34388262 rev/d
Perigee alt
462.0 km
Apogee alt
463.5 km
Semi-major
6,840.9 km
B*
5.7796e-5
RAAN
8.4071°
Arg perigee
81.6535°
Mean anomaly
278.4596°
Rev number
23,072

§ Raw data

STARLINK-41501 53134U 22083C   26262.90210993  .00001576  00000+0  57796-4 0  99982 53134  53.1617   8.4071 0001129  81.6535 278.4596 15.34388262230729

JSON: /api/v1/satellites/53134 · /tle

For live sub-satellite position, see the globe view (requires WebGL).

§ Visibility from observer

Set your observer location to see the next 7 days of passes ≥ 10°. The values pass through the URL so the page stays shareable.

No JS? Fill the form by hand. The geolocation button needs JavaScript.